Location: Clermont
(50.2608°N, 4.3172°E)
Time: 21:39:03
(UTC+00:00)

SL-27 R/B - Pass Details

Date: 13 August 2020
Orbit: 419 x 471 km, 74.7° (Epoch: 22 September)

Event Time Altitude Azimuth Distance (km) Brightness Sun altitude
Exits shadow 21:20:11 45° 192° (SSW) 582 2.6 -17.8°
Maximum altitude 21:21:05 82° 111° (ESE) 432 2.1 -17.9°
Drops below altitude 10° 21:24:24 10° 24° (NNE) 1,513 5.4 -18.2°
Sets 21:26:27 0° 24° (NNE) 2,384 6.5 -18.4°
